SWA4034 KMDW-KMHT

Flight info

Callsign SWA4034
Flight time N/A
Altitude 39000
Route LEWKE GIJ EVOTE NELLS KEEHO JHW Q82 PONCT ROZZE2
Aircraft B38M/M-SDE1FGHILORVWXY/HB1

Departure

Time N/A
Airport Chicago Midway International Airport (KMDW)

Arrival

Time 2026-04-30 02:03
Airport Manchester-Boston Regional Airport (KMHT)
Time Latitude Longitude Altitude Speed Heading
2026-04-30 00:48 41.93386 -83.19505 38946 ft 505 kts 91°
2026-04-30 00:49 41.93356 -83.14793 38941 ft 505 kts 92°
2026-04-30 00:49 41.93292 -83.05353 38950 ft 506 kts 92°
2026-04-30 00:50 41.93220 -82.95960 38947 ft 506 kts 92°
2026-04-30 00:50 41.93140 -82.86513 38950 ft 506 kts 92°
2026-04-30 00:51 41.93053 -82.77069 38932 ft 506 kts 92°
2026-04-30 00:51 41.92957 -82.67616 38959 ft 506 kts 92°
2026-04-30 00:52 41.92854 -82.58150 38949 ft 506 kts 92°
2026-04-30 00:52 41.92743 -82.48753 38954 ft 506 kts 92°
2026-04-30 00:53 41.92625 -82.39306 38942 ft 506 kts 92°
2026-04-30 00:53 41.92498 -82.29865 38953 ft 506 kts 92°
2026-04-30 00:54 41.92364 -82.20414 38957 ft 506 kts 92°
2026-04-30 00:54 41.92222 -82.10967 38959 ft 506 kts 92°
2026-04-30 00:55 41.92072 -82.01516 38974 ft 505 kts 92°
2026-04-30 00:55 41.91840 -81.87481 38952 ft 502 kts 93°
2026-04-30 00:56 41.92326 -81.78147 38975 ft 502 kts 82°
2026-04-30 00:56 41.93354 -81.68829 38945 ft 504 kts 82°
2026-04-30 00:57 41.94208 -81.61085 38943 ft 504 kts 82°
2026-04-30 00:57 41.95231 -81.51772 38951 ft 504 kts 82°
2026-04-30 00:58 41.96245 -81.42463 38943 ft 504 kts 82°
2026-04-30 00:58 41.97252 -81.33154 38935 ft 504 kts 82°
2026-04-30 00:59 41.98252 -81.23836 38930 ft 503 kts 83°
2026-04-30 00:59 41.99243 -81.14523 38932 ft 503 kts 83°
2026-04-30 01:00 42.00227 -81.05207 38936 ft 503 kts 83°
2026-04-30 01:00 42.01203 -80.95890 38929 ft 503 kts 83°
2026-04-30 01:01 42.02166 -80.86625 38911 ft 503 kts 83°
2026-04-30 01:01 42.03128 -80.77291 38923 ft 504 kts 83°
2026-04-30 01:02 42.04082 -80.67964 38924 ft 502 kts 83°
2026-04-30 01:02 42.05026 -80.58653 38921 ft 502 kts 83°
2026-04-30 01:03 42.05961 -80.49357 38913 ft 501 kts 83°
2026-04-30 01:03 42.06888 -80.40069 38918 ft 501 kts 83°
2026-04-30 01:04 42.07806 -80.30780 38916 ft 501 kts 84°
2026-04-30 01:04 42.08718 -80.21485 38915 ft 501 kts 84°
2026-04-30 01:05 42.09622 -80.12183 38908 ft 500 kts 84°
2026-04-30 01:05 42.10519 -80.02886 38915 ft 500 kts 84°
2026-04-30 01:06 42.11407 -79.93595 38919 ft 500 kts 84°
2026-04-30 01:06 42.12281 -79.84366 38914 ft 500 kts 84°
2026-04-30 01:07 42.13154 -79.75069 38906 ft 499 kts 84°
2026-04-30 01:07 42.14019 -79.65777 38899 ft 499 kts 84°
2026-04-30 01:08 42.14876 -79.56484 38901 ft 499 kts 84°
2026-04-30 01:08 42.15717 -79.47280 38893 ft 498 kts 84°
2026-04-30 01:09 42.16564 -79.37940 38880 ft 498 kts 85°
2026-04-30 01:09 42.17393 -79.28731 38887 ft 498 kts 85°
2026-04-30 01:10 42.18221 -79.19455 38890 ft 498 kts 85°
2026-04-30 01:10 42.19175 -79.10202 38885 ft 498 kts 81°
2026-04-30 01:11 42.20391 -79.00988 38876 ft 499 kts 82°
2026-04-30 01:11 42.21565 -78.91759 38870 ft 499 kts 82°
2026-04-30 01:12 42.22729 -78.82539 38862 ft 499 kts 82°
2026-04-30 01:12 42.23885 -78.73311 38867 ft 499 kts 82°
2026-04-30 01:13 42.25036 -78.64067 38838 ft 500 kts 82°
2026-04-30 01:13 42.26184 -78.54788 38854 ft 502 kts 82°
2026-04-30 01:14 42.27131 -78.47079 38862 ft 501 kts 82°
2026-04-30 01:14 42.28448 -78.36281 38850 ft 501 kts 82°
2026-04-30 01:15 42.29573 -78.26991 38856 ft 501 kts 82°
2026-04-30 01:15 42.30691 -78.17695 38850 ft 501 kts 82°
2026-04-30 01:16 42.31801 -78.08393 38831 ft 501 kts 82°
2026-04-30 01:16 42.32905 -77.99082 38841 ft 501 kts 82°
2026-04-30 01:17 42.34002 -77.89771 38831 ft 502 kts 82°
2026-04-30 01:17 42.35091 -77.80476 38837 ft 503 kts 82°
2026-04-30 01:18 42.36182 -77.71133 38862 ft 502 kts 82°
2026-04-30 01:18 42.37262 -77.61814 38841 ft 501 kts 83°
2026-04-30 01:19 42.38335 -77.52500 38834 ft 501 kts 83°
2026-04-30 01:19 42.39399 -77.43189 38822 ft 501 kts 83°
2026-04-30 01:20 42.40456 -77.33871 38805 ft 501 kts 83°
2026-04-30 01:20 42.41497 -77.24619 38803 ft 501 kts 83°
2026-04-30 01:21 42.42538 -77.15308 38800 ft 501 kts 83°
2026-04-30 01:21 42.43575 -77.05967 38796 ft 501 kts 83°
2026-04-30 01:22 42.44598 -76.96627 38796 ft 501 kts 83°
2026-04-30 01:22 42.45613 -76.87286 38804 ft 501 kts 83°
2026-04-30 01:23 42.46622 -76.77949 38816 ft 501 kts 83°
2026-04-30 01:23 42.47628 -76.68612 38809 ft 500 kts 83°
2026-04-30 01:24 42.48618 -76.59345 38810 ft 500 kts 83°
2026-04-30 01:24 42.49600 -76.50085 38797 ft 500 kts 83°
2026-04-30 01:25 42.50586 -76.40706 38810 ft 499 kts 83°
2026-04-30 01:25 42.51558 -76.31396 38813 ft 499 kts 83°
2026-04-30 01:26 42.52511 -76.22144 38813 ft 499 kts 83°
2026-04-30 01:26 42.53464 -76.12830 38791 ft 499 kts 83°
2026-04-30 01:27 42.54408 -76.03513 38822 ft 499 kts 83°
2026-04-30 01:27 42.55347 -75.94179 38818 ft 499 kts 83°
2026-04-30 01:28 42.56278 -75.84850 38831 ft 498 kts 84°
2026-04-30 01:28 42.57198 -75.75555 38811 ft 497 kts 84°
2026-04-30 01:29 42.58112 -75.66248 38823 ft 498 kts 84°
2026-04-30 01:29 42.59020 -75.56941 38823 ft 497 kts 84°
2026-04-30 01:30 42.59920 -75.47627 38824 ft 498 kts 84°
2026-04-30 01:30 42.60812 -75.38323 38817 ft 497 kts 84°
2026-04-30 01:31 42.61699 -75.28989 38830 ft 498 kts 84°
2026-04-30 01:31 42.62571 -75.19733 38836 ft 497 kts 84°
2026-04-30 01:32 42.63447 -75.10351 38840 ft 498 kts 84°
2026-04-30 01:32 42.64309 -75.01028 38855 ft 498 kts 84°
2026-04-30 01:33 42.65159 -74.91754 38847 ft 498 kts 84°
2026-04-30 01:33 42.66008 -74.82413 38848 ft 498 kts 84°
2026-04-30 01:34 42.66849 -74.73068 38840 ft 498 kts 84°
2026-04-30 01:34 42.67681 -74.63731 38844 ft 498 kts 84°
2026-04-30 01:35 42.68506 -74.54389 38847 ft 498 kts 84°
2026-04-30 01:35 42.69325 -74.45033 38840 ft 498 kts 84°
2026-04-30 01:36 42.70134 -74.35690 38831 ft 498 kts 84°
2026-04-30 01:36 42.70937 -74.26339 38838 ft 498 kts 84°
2026-04-30 01:37 42.71334 -74.21676 38087 ft 499 kts 85°
2026-04-30 01:37 42.71733 -74.16950 36989 ft 507 kts 86°
2026-04-30 01:37 42.72136 -74.12174 36239 ft 507 kts 86°
2026-04-30 01:37 42.72533 -74.07450 35874 ft 498 kts 86°
2026-04-30 01:38 42.72922 -74.02801 35523 ft 490 kts 87°
2026-04-30 01:38 42.73298 -73.98274 34998 ft 487 kts 87°
2026-04-30 01:38 42.73677 -73.93708 34418 ft 486 kts 87°
2026-04-30 01:38 42.74053 -73.89150 33844 ft 484 kts 88°
2026-04-30 01:39 42.74428 -73.84600 33237 ft 482 kts 88°
2026-04-30 01:39 42.74713 -73.80078 32661 ft 477 kts 92°
2026-04-30 01:39 42.74857 -73.75588 32118 ft 473 kts 91°
2026-04-30 01:39 42.75019 -73.71129 31630 ft 469 kts 91°
2026-04-30 01:40 42.75190 -73.66718 31141 ft 466 kts 90°
2026-04-30 01:40 42.75362 -73.62330 30620 ft 463 kts 90°
2026-04-30 01:40 42.75531 -73.57972 30129 ft 459 kts 90°
2026-04-30 01:40 42.75698 -73.53650 29517 ft 458 kts 90°
2026-04-30 01:41 42.75860 -73.49302 28645 ft 462 kts 90°
2026-04-30 01:41 42.76010 -73.44916 27820 ft 465 kts 90°
2026-04-30 01:41 42.76160 -73.40536 27251 ft 461 kts 90°
2026-04-30 01:41 42.76308 -73.36183 26602 ft 459 kts 90°
2026-04-30 01:42 42.76454 -73.31837 25879 ft 460 kts 90°
2026-04-30 01:42 42.76599 -73.27489 25150 ft 460 kts 89°
2026-04-30 01:42 42.76740 -73.23194 24447 ft 460 kts 89°
2026-04-30 01:42 42.76881 -73.18842 23724 ft 461 kts 89°
2026-04-30 01:43 42.77021 -73.14484 22895 ft 461 kts 89°
2026-04-30 01:43 42.77160 -73.10119 22096 ft 459 kts 89°
2026-04-30 01:43 42.77302 -73.05789 21370 ft 456 kts 88°
2026-04-30 01:43 42.77540 -73.01538 20808 ft 440 kts 88°
2026-04-30 01:44 42.77695 -72.98825 20516 ft 426 kts 88°
2026-04-30 01:44 42.77910 -72.94891 20050 ft 408 kts 88°
2026-04-30 01:44 42.78113 -72.91121 19617 ft 392 kts 88°
2026-04-30 01:44 42.78307 -72.87477 19191 ft 379 kts 88°
2026-04-30 01:45 42.78493 -72.83962 18776 ft 366 kts 89°
2026-04-30 01:45 42.78672 -72.80556 18387 ft 356 kts 89°
2026-04-30 01:45 42.78850 -72.77162 17913 ft 364 kts 89°
2026-04-30 01:45 42.79035 -72.73702 17430 ft 369 kts 89°
2026-04-30 01:46 42.79228 -72.70222 17060 ft 369 kts 89°
2026-04-30 01:46 42.79419 -72.66745 16721 ft 367 kts 89°
2026-04-30 01:46 42.79608 -72.63280 16272 ft 366 kts 89°
2026-04-30 01:46 42.79795 -72.59816 15825 ft 365 kts 89°
2026-04-30 01:47 42.79980 -72.56385 15418 ft 362 kts 90°
2026-04-30 01:47 42.80162 -72.52975 15027 ft 360 kts 90°
2026-04-30 01:47 42.80343 -72.49586 14625 ft 357 kts 90°
2026-04-30 01:47 42.80516 -72.46223 14189 ft 356 kts 90°
2026-04-30 01:48 42.80687 -72.42869 13795 ft 354 kts 90°
2026-04-30 01:48 42.80857 -72.39534 13376 ft 351 kts 90°
2026-04-30 01:48 42.81023 -72.36273 12975 ft 348 kts 90°
2026-04-30 01:48 42.81191 -72.32950 12577 ft 345 kts 90°
2026-04-30 01:49 42.81351 -72.29743 12190 ft 342 kts 90°
2026-04-30 01:49 42.81512 -72.26522 11782 ft 340 kts 89°
2026-04-30 01:49 42.81670 -72.23325 11419 ft 337 kts 89°
2026-04-30 01:49 42.81826 -72.20161 11053 ft 334 kts 89°
2026-04-30 01:50 42.81980 -72.17021 10767 ft 329 kts 89°
2026-04-30 01:50 42.82139 -72.13964 10616 ft 320 kts 88°
2026-04-30 01:50 42.82301 -72.10983 10460 ft 311 kts 88°
2026-04-30 01:50 42.82456 -72.08089 10314 ft 302 kts 88°
2026-04-30 01:51 42.82606 -72.05272 10172 ft 293 kts 88°
2026-04-30 01:51 42.82751 -72.02535 10030 ft 285 kts 88°
2026-04-30 01:51 42.82892 -71.99857 9786 ft 281 kts 88°
2026-04-30 01:51 42.83004 -71.97200 9430 ft 281 kts 89°
2026-04-30 01:52 42.83110 -71.94577 9099 ft 280 kts 90°
2026-04-30 01:52 42.83140 -71.91945 8785 ft 276 kts 98°
2026-04-30 01:52 42.82908 -71.89362 8470 ft 274 kts 99°
2026-04-30 01:52 42.82690 -71.86791 8189 ft 271 kts 99°
2026-04-30 01:53 42.82487 -71.84244 7907 ft 270 kts 98°
2026-04-30 01:53 42.82291 -71.81706 7601 ft 268 kts 98°
2026-04-30 01:53 42.82102 -71.79186 7310 ft 266 kts 98°
2026-04-30 01:53 42.81918 -71.76682 7037 ft 265 kts 98°
2026-04-30 01:54 42.81735 -71.74196 6768 ft 263 kts 98°
2026-04-30 01:54 42.81553 -71.71719 6480 ft 262 kts 99°
2026-04-30 01:54 42.81373 -71.69258 6177 ft 261 kts 98°
2026-04-30 01:54 42.81193 -71.66804 5865 ft 260 kts 98°
2026-04-30 01:55 42.81015 -71.64391 5554 ft 252 kts 98°
2026-04-30 01:55 42.80844 -71.62066 5279 ft 241 kts 98°
2026-04-30 01:55 42.80680 -71.59877 5052 ft 229 kts 99°
2026-04-30 01:55 42.80162 -71.57946 4850 ft 213 kts 130°
2026-04-30 01:56 42.79121 -71.56533 4704 ft 212 kts 137°
2026-04-30 01:56 42.78045 -71.55156 4569 ft 212 kts 137°
2026-04-30 01:56 42.76962 -71.53793 4412 ft 212 kts 137°
2026-04-30 01:56 42.75877 -71.52441 4252 ft 211 kts 138°
2026-04-30 01:57 42.74802 -71.51110 4048 ft 207 kts 138°
2026-04-30 01:57 42.73786 -71.49745 3761 ft 206 kts 125°
2026-04-30 01:57 42.73332 -71.47915 3489 ft 207 kts 95°
2026-04-30 01:57 42.73559 -71.45995 3272 ft 205 kts 76°
2026-04-30 01:58 42.73973 -71.44157 3072 ft 201 kts 76°
2026-04-30 01:58 42.74388 -71.42365 2864 ft 197 kts 75°
2026-04-30 01:58 42.74801 -71.40607 2646 ft 193 kts 75°
2026-04-30 01:58 42.75230 -71.38918 2524 ft 185 kts 66°
2026-04-30 01:59 42.77385 -71.37174 2548 ft 192 kts 12°
2026-04-30 01:59 42.78710 -71.36895 2541 ft 189 kts 11°
2026-04-30 01:59 42.79942 -71.36657 2523 ft 175 kts 11°
2026-04-30 02:00 42.81150 -71.36534 2512 ft 175 kts 358°
2026-04-30 02:00 42.82336 -71.36898 2442 ft 176 kts 341°
2026-04-30 02:00 42.83458 -71.37582 2236 ft 176 kts 336°
2026-04-30 02:00 42.84556 -71.38278 1982 ft 173 kts 338°
2026-04-30 02:01 42.85636 -71.38918 1776 ft 162 kts 340°
2026-04-30 02:01 42.86630 -71.39501 1545 ft 151 kts 339°
2026-04-30 02:01 42.87582 -71.40063 1322 ft 148 kts 339°
2026-04-30 02:01 42.88519 -71.40615 1102 ft 146 kts 339°
2026-04-30 02:02 42.89443 -71.41160 872 ft 144 kts 338°
2026-04-30 02:02 42.90356 -71.41699 655 ft 143 kts 338°
2026-04-30 02:02 42.91276 -71.42239 449 ft 142 kts 339°
2026-04-30 02:02 42.92149 -71.42760 277 ft 131 kts 338°
2026-04-30 02:03 42.92827 -71.43157 240 ft 71 kts 336°
2026-04-30 02:03 42.93137 -71.43342 238 ft 30 kts 337°
2026-04-30 02:03 42.93240 -71.43436 236 ft 13 kts 270°
2026-04-30 02:03 42.93181 -71.43525 235 ft 15 kts 181°
2026-04-30 02:04 42.93076 -71.43470 235 ft 18 kts 157°
2026-04-30 02:04 42.92957 -71.43422 238 ft 19 kts 198°
2026-04-30 02:04 42.92898 -71.43556 236 ft 13 kts 236°
2026-04-30 02:04 42.92847 -71.43634 235 ft 6 kts 244°
2026-04-30 02:05 42.92839 -71.43661 236 ft 2 kts 248°
2026-04-30 02:05 42.92837 -71.43669 235 ft 0 kts 247°